Satellite: ISS
Catalog number: 25544
Epoch time:      10140.82248692
Element set:     189
Inclination:      051.6470 deg
RA of node:       010.9984 deg
Eccentricity:    0.0009832
Arg of perigee:   338.4835 deg
Mean anomaly:     114.7562 deg
Mean motion:   15.74141501 rev/day
Decay rate:     1.3793e-04 rev/day^2
Epoch rev:           65916
Checksum:              307

Satellite: CO-58
Catalog number: 28895
Epoch time:      10139.88055314
Element set:    0589
Inclination:      098.0196 deg
RA of node:       025.2895 deg
Eccentricity:    0.0018065
Arg of perigee:   018.7937 deg
Mean anomaly:     341.3956 deg
Mean motion:   14.59890288 rev/day
Decay rate:        4.0e-08 rev/day^2
Epoch rev:           24285
Checksum:              356

Satellite: FALCON
Catalog number: 30776
Epoch time:      10139.59725111
Element set:    0831
Inclination:      035.4336 deg
RA of node:       217.8682 deg
Eccentricity:    0.0002060
Arg of perigee:   316.9272 deg
Mean anomaly:     043.1284 deg
Mean motion:   15.03655992 rev/day
Decay rate:       3.65e-06 rev/day^2
Epoch rev:           17575
Checksum:              291

Satellite: MAST
Catalog number: 31126
Epoch time:      10139.93020155
Element set:    0870
Inclination:      097.9385 deg
RA of node:       183.3992 deg
Eccentricity:    0.0093767
Arg of perigee:   314.6178 deg
Mean anomaly:     044.7332 deg
Mean motion:   14.53584800 rev/day
Decay rate:      -1.42e-06 rev/day^2
Epoch rev:           16395
Checksum:              307

Satellite: CAPE1
Catalog number: 31130
Epoch time:      10140.78133310
Element set:     890
Inclination:      097.9400 deg
RA of node:       181.6694 deg
Eccentricity:    0.0101651
Arg of perigee:   320.2128 deg
Mean anomaly:     039.1635 deg
Mean motion:   14.52177127 rev/day
Decay rate:       1.84e-06 rev/day^2
Epoch rev:           16368
Checksum:              264

Satellite: COMPASS
Catalog number: 32787
Epoch time:      10140.21412370
Element set:     676
Inclination:      097.8966 deg
RA of node:       205.3536 deg
Eccentricity:    0.0016203
Arg of perigee:   021.0631 deg
Mean anomaly:     339.1257 deg
Mean motion:   14.81866344 rev/day
Decay rate:       5.75e-06 rev/day^2
Epoch rev:           11135
Checksum:              278

Satellite: AAUSAT2
Catalog number: 32788
Epoch time:      10140.15235597
Element set:     669
Inclination:      097.8939 deg
RA of node:       205.4127 deg
Eccentricity:    0.0016163
Arg of perigee:   022.0108 deg
Mean anomaly:     338.1816 deg
Mean motion:   14.82008783 rev/day
Decay rate:       6.31e-06 rev/day^2
Epoch rev:           11135
Checksum:              291

Satellite: DO-64
Catalog number: 32789
Epoch time:      10139.69129224
Element set:     685
Inclination:      097.9025 deg
RA of node:       205.4005 deg
Eccentricity:    0.0016113
Arg of perigee:   021.8780 deg
Mean anomaly:     338.3139 deg
Mean motion:   14.82138432 rev/day
Decay rate:       8.85e-06 rev/day^2
Epoch rev:           11128
Checksum:              303

Satellite: CO-66
Catalog number: 32791
Epoch time:      10140.63719988
Element set:     668
Inclination:      097.8958 deg
RA of node:       205.7886 deg
Eccentricity:    0.0016723
Arg of perigee:   017.4002 deg
Mean anomaly:     342.7762 deg
Mean motion:   14.81654700 rev/day
Decay rate:       5.31e-06 rev/day^2
Epoch rev:           11137
Checksum:              325

Satellite: RS-30
Catalog number: 32953
Epoch time:      10140.76291027
Element set:     710
Inclination:      082.5032 deg
RA of node:       046.7314 deg
Eccentricity:    0.0018686
Arg of perigee:   158.0551 deg
Mean anomaly:     202.1333 deg
Mean motion:   12.43005073 rev/day
Decay rate:        1.0e-07 rev/day^2
Epoch rev:            9033
Checksum:              238

Satellite: TACSAT-3
Catalog number: 35001
Epoch time:      10139.93328315
Element set:    0292
Inclination:      040.4574 deg
RA of node:       023.7990 deg
Eccentricity:    0.0019953
Arg of perigee:   156.6171 deg
Mean anomaly:     203.5563 deg
Mean motion:   15.41572655 rev/day
Decay rate:      3.394e-05 rev/day^2
Epoch rev:           05627
Checksum:              294

Satellite: PHARMSAT
Catalog number: 35002
Epoch time:      10140.80348655
Element set:     275
Inclination:      040.4706 deg
RA of node:       016.6726 deg
Eccentricity:    0.0023162
Arg of perigee:   166.4579 deg
Mean anomaly:     193.6863 deg
Mean motion:   15.42131848 rev/day
Decay rate:      3.309e-05 rev/day^2
Epoch rev:            5642
Checksum:              283

Satellite: HAWKSAT1
Catalog number: 35003
Epoch time:      10139.92535491
Element set:    0294
Inclination:      040.4634 deg
RA of node:       017.5484 deg
Eccentricity:    0.0021361
Arg of perigee:   174.9099 deg
Mean anomaly:     185.1968 deg
Mean motion:   15.44990531 rev/day
Decay rate:      6.505e-05 rev/day^2
Epoch rev:           05634
Checksum:              302

Satellite: CP6
Catalog number: 35004
Epoch time:      10139.93677658
Element set:    0291
Inclination:      040.4666 deg
RA of node:       016.7526 deg
Eccentricity:    0.0020304
Arg of perigee:   177.7418 deg
Mean anomaly:     182.3515 deg
Mean motion:   15.45736858 rev/day
Decay rate:      7.831e-05 rev/day^2
Epoch rev:           05634
Checksum:              314

